Home   Weather   Kassala   Past weeks
Flag for Sudan

Past Weather in Kassala, Sudan — Yesterday and Last 2 Weeks

Now
109 °F

Sunny.


Feels Like: 104 °F
Forecast: 103 / 76 °F
Wind: 8 mph from North

Location: Khartoum Airport

Current Time: Jun 4, 2020 at 3:03:51 pm

Latest Report: Jun 4, 2020 at 2:00 pm


Visibility: 10 mi

Pressure: 29.77 "Hg (28.19 "Hg at 506m altitude)

Humidity: 9%

Dew Point: 39 °F

Location of KassalaLocation

Past Weather in Kassala — Graph

°F

Kassala Temperature Yesterday

Maximum temperature yesterday: 111 °F (at 2:00 pm)
Minimum temperature yesterday: 82 °F (at 5:00 am)
Average temperature yesterday: 98 °F

High & Low Weather Summary for the Past Weeks

 TemperatureHumidityPressure
High111 °F (Jun 3, 2:00 pm)66% (May 22, 7:00 am)30.01 "Hg (May 22, 7:00 am)
Low81 °F (May 22, 6:00 am)5% (May 27, 2:00 pm)29.65 "Hg (May 25, 2:00 pm)
Average96 °F18%29.82 "Hg
* Reported May 20 2:00 pm — Jun 4 2:00 pm, Kassala. Weather by CustomWeather, © 2020

Note: Actual official high and low records may vary slightly from our data, if they occured in-between our weather recording intervals... More about our weather records

Kassala Weather History for the Previous 24 Hours

Scroll right to see more
 ConditionsComfort  
Time TempWeatherWind HumidityBarometerVisibility
2:00 pm
Thu, Jun 4
109 °FSunny.8 mph9%29.77 "Hg10 mi
1:00 pm108 °FSunny.6 mph10%29.80 "Hg10 mi
12:00 pm104 °FSunny.6 mph14%29.83 "Hg10 mi
11:00 am102 °FSunny.6 mph16%29.86 "Hg10 mi
10:00 am99 °FSunny.8 mph24%29.86 "Hg10 mi
9:00 am93 °FSunny.9 mph30%29.86 "Hg10 mi
8:00 am91 °FSunny.12 mph34%29.86 "Hg10 mi
7:00 am88 °FSunny.12 mph31%29.86 "Hg10 mi
6:00 am88 °FSunny.8 mph24%29.83 "Hg10 mi
5:00 am88 °FClear.8 mph13%29.80 "Hg10 mi
4:00 am88 °FClear.8 mph13%29.80 "Hg10 mi
3:00 am88 °FClear.8 mph11%29.74 "Hg10 mi
12:00 am95 °FClear.10 mph10%29.77 "Hg10 mi
11:00 pm
Wed, Jun 3
95 °FClear.10 mph10%29.77 "Hg10 mi
10:00 pm97 °FClear.9 mph12%29.77 "Hg10 mi
9:00 pm99 °FClear.6 mph10%29.77 "Hg10 mi
8:00 pm100 °FClear.9 mph10%29.74 "Hg10 mi
7:00 pm102 °FClear.9 mph9%29.71 "Hg10 mi
6:00 pm106 °FSunny.13 mph8%29.71 "Hg10 mi
5:00 pm109 °FSunny.14 mph7%29.71 "Hg10 mi
4:00 pm109 °FSunny.13 mph7%29.71 "Hg10 mi
3:00 pm111 °FSunny.10 mph7%29.71 "Hg10 mi
Weather by CustomWeather, © 2020

See weather overview

Advertising